User: anonymous   Login
Location: Chandrammap?lem
(16.9200°N, 81.0051°E)
Time: 05:32:14
(UTC+00:00)
Language:

Cosmos 2084 Rocket - Orbit

View from above orbital plane
View from above orbital plane
View from above satellite
View from above satellite

Ground track
Ground track

The orbit data is extracted from the following two-line orbital elements,

1 20666U 90055D   24204.18528756  .00004537  00000-0  36911-3 0  9995
2 20666  62.7853 112.3811 0081160 146.8187 213.8038 14.98447958848241
Epoch (UTC): 22 July 2024 04:26:48
Eccentricity: 0.0081160
inclination: 62.7853°
perigee height: 515 km
apogee height: 628 km
right ascension of ascending node: 112.3811°
argument of perigee: 146.8187°
revolutions per day: 14.98447958
mean anomaly at epoch: 213.8038°
orbit number at epoch: 84824

The dashed part of the orbit path shows where the satellite is in the earth's shadow,  

DLR